Temp
11 12 15 17 17 17 17 17 18 18 19 19 19 20 21 21 21 21 21 21 22 22 22 22 21 21 21 21 21 21 20 20 19 17 20 27 28 28 27 28 27 27 27 27 27 27 26 25 25 25 25 26 25 26 26 25 25 25 25 24 24 24 24 26 26 26 26 28 27 26 27 27 27 26 27 27 26 25 25 26 25 25 24 24 24 24 23 23
12 13 15 17 17 17 17 17 18 19 19 19 20 21 21 21 21 21 21 21 22 22 22 22 21 21 21 21 20 20 20 18 17 17 23 28 28 28 27 27 27 27 27 26 27 27 27 26 25 24 26 26 25 26 26 26 26 25 25 24 24 26 26 26 26 26 27 28 28 27 27 27 27 27 27 27 26 25 25 25 24 24 23 23 23 23 23 23
12 13 15 16 17 17 17 17 18 19 19 20 20 21 21 21 21 21 22 22 22 22 22 22 21 21 21 20 20 20 17 17 20 24 27 29 28 28 27 27 27 27 27 26 27 27 27 26 25 25 26 26 26 26 26 26 25 25 25 25 26 27 27 26 26 26 27 27 28 27 26 27 27 26 27 27 25 25 25 24 24 23 23 23 23 23 23 23
13 14 15 16 17 17 17 17 18 19 19 20 20 21 21 21 21 22 22 22 22 22 22 22 21 21 21 19 20 19 16 19 26 28 28 28 29 28 27 27 27 27 27 26 26 26 27 26 26 27 27 27 26 26 26 26 26 26 25 27 28 26 27 27 26 26 26 26 27 27 26 27 27 26 27 26 25 25 25 25 25 24 23 23 23 23 23 23
14 15 15 16 17 17 17 18 18 19 19 20 20 21 21 21 21 21 22 22 22 22 22 22 21 21 20 19 19 17 18 24 28 28 28 28 28 28 28 27 27 27 26 26 26 26 26 26 26 27 27 27 26 26 27 27 26 26 26 27 27 26 27 28 26 26 26 25 27 27 27 27 27 27 26 26 26 26 26 26 26 24 23 23 23 23 23 23
15 15 16 17 17 17 18 18 18 19 19 20 20 21 21 21 21 21 21 22 22 21 21 21 21 21 20 20 19 17 21 27 27 28 29 28 28 28 28 27 27 27 26 26 26 25 26 26 27 27 26 27 27 27 28 27 27 27 27 27 26 26 28 27 25 26 25 26 27 26 27 27 27 27 25 26 27 27 27 27 25 24 24 24 23 23 23 23
15 16 17 17 17 18 18 18 19 19 19 20 20 21 21 21 21 22 22 22 22 21 21 21 21 21 20 19 18 19 23 27 28 29 29 28 28 28 28 27 27 26 26 25 25 25 26 26 27 27 26 27 27 28 28 28 27 27 28 27 26 26 26 26 26 25 25 26 26 25 26 26 27 27 25 26 27 26 27 27 25 25 24 24 24 23 23 23
16 16 16 17 17 18 18 19 19 19 19 20 20 21 21 21 21 22 22 22 22 21 21 21 20 20 20 19 20 23 26 28 29 29 29 28 28 27 28 27 26 26 26 25 25 26 26 27 27 27 27 27 28 28 28 28 28 27 27 27 26 25 24 25 25 25 26 25 25 25 26 25 25 25 25 26 26 26 26 26 25 24 24 24 23 23 23 23
15 16 16 16 17 17 18 19 19 19 20 20 20 21 21 22 22 22 22 22 22 21 20 20 20 20 19 17 20 25 28 28 29 29 29 28 28 27 27 26 26 26 25 25 26 26 26 27 27 27 27 27 27 27 28 28 28 27 26 26 25 24 24 25 25 25 25 25 25 26 25 25 24 24 26 26 25 25 26 25 25 24 24 24 24 23 23 23
16 16 16 16 17 18 18 19 19 20 20 20 21 21 21 22 22 22 22 22 22 21 20 20 19 19 18 18 22 27 28 29 29 29 29 28 28 28 27 26 26 25 25 24 25 26 27 27 27 27 27 27 27 28 28 28 27 26 25 25 24 25 25 25 26 25 25 25 25 26 25 25 24 25 26 25 24 25 25 25 24 24 24 24 24 23 23 23
16 16 16 17 17 18 18 19 20 20 20 21 21 22 22 22 22 23 23 22 22 21 20 19 19 19 17 19 24 28 28 28 28 28 28 28 28 28 28 27 26 26 25 24 25 27 27 26 26 27 27 28 28 28 28 27 27 25 25 26 25 25 25 25 25 25 25 25 24 25 26 25 25 25 25 23 23 25 25 25 24 24 24 24 24 24 23 23
17 17 17 17 17 18 19 20 20 21 21 21 22 22 23 23 23 23 23 23 22 21 20 19 19 18 17 19 24 27 28 28 28 28 28 28 28 28 28 28 28 27 27 26 26 28 29 27 27 28 28 28 28 29 28 26 27 26 26 27 26 26 26 25 25 24 25 25 23 25 25 25 25 24 22 21 23 25 25 24 24 24 24 24 24 24 23 23
17 17 17 17 18 18 19 20 20 21 21 22 23 23 23 24 24 24 23 23 22 21 20 19 19 17 18 24 27 28 28 28 28 28 28 28 28 28 28 28 28 28 29 28 28 29 29 27 27 28 28 28 29 29 28 27 27 27 26 27 26 26 26 25 24 24 25 23 23 25 24 24 25 22 21 21 22 25 25 24 24 24 24 24 24 24 23 23
18 18 18 18 18 19 19 20 20 21 22 23 23 24 25 25 25 24 23 23 21 20 19 19 18 16 19 26 28 28 28 28 28 29 29 28 27 27 27 27 27 28 28 28 28 28 28 27 27 27 28 28 29 29 28 26 26 27 26 26 25 24 24 25 23 24 25 22 24 26 23 23 25 22 21 22 22 24 25 25 24 25 25 25 24 24 24 24
18 18 19 19 19 19 20 20 21 22 23 23 24 25 25 24 24 24 23 22 21 20 19 18 17 17 22 27 28 28 28 28 29 29 29 29 28 28 28 27 27 28 28 28 28 28 28 27 27 28 28 28 29 29 28 26 26 26 25 24 23 22 24 26 23 24 25 23 24 25 23 23 24 23 21 22 22 23 24 25 25 25 25 25 25 24 24 24
18 19 19 19 20 20 20 21 22 23 23 24 25 24 24 23 23 23 22 21 20 20 19 18 17 18 24 28 28 29 29 29 30 30 30 29 29 28 28 28 28 27 27 27 28 28 28 28 27 28 28 28 29 29 28 25 25 25 24 22 23 23 23 25 24 23 24 24 24 24 23 23 24 23 22 22 22 22 23 25 26 25 26 26 26 25 25 25
19 19 19 20 20 21 21 22 22 23 24 25 24 23 23 23 22 22 21 20 20 19 18 18 17 18 25 29 29 29 28 29 30 30 30 30 29 29 29 28 28 27 27 28 28 28 28 28 27 27 27 27 27 29 26 23 23 23 23 23 23 23 22 23 24 23 23 24 24 23 22 23 23 23 22 21 21 21 22 24 26 26 26 27 26 26 25 25
19 19 20 20 21 21 22 22 23 24 25 25 24 23 22 22 21 21 21 20 19 19 19 18 18 21 27 29 28 28 28 28 29 30 30 30 29 29 28 29 28 27 28 28 28 28 28 28 27 28 27 26 27 28 24 22 24 23 23 23 23 23 23 23 24 23 23 23 23 22 22 23 23 23 22 21 21 21 22 23 25 26 26 26 26 26 25 25
19 19 20 20 21 21 22 23 23 24 25 25 23 22 22 21 20 20 19 19 21 23 24 23 23 25 27 28 27 28 28 29 29 30 29 29 29 28 28 28 28 28 28 28 28 28 28 28 27 27 26 27 28 28 26 26 27 26 25 24 23 23 23 23 24 23 23 23 23 23 23 23 23 22 22 21 21 21 22 23 23 24 25 26 25 25 25 25
19 19 20 20 21 21 22 23 24 25 25 25 23 22 22 22 23 23 21 20 22 25 27 26 26 26 27 27 27 28 29 29 29 30 29 29 29 28 28 28 28 29 28 28 28 27 27 27 26 26 27 28 28 28 28 28 27 27 26 24 23 23 23 23 23 23 23 24 23 23 23 23 23 22 22 22 21 21 22 23 23 24 25 24 24 24 24 24
19 20 20 20 21 21 22 23 24 25 25 25 25 23 23 23 24 25 23 23 24 22 25 26 25 26 27 27 27 28 28 28 29 29 29 30 29 29 28 27 28 28 27 27 27 27 27 26 26 28 28 28 27 27 27 27 27 27 26 24 24 23 23 23 23 23 23 23 23 23 23 23 23 22 22 22 22 21 22 23 23 23 24 24 24 24 24 23
19 20 20 21 21 22 22 23 24 25 25 26 25 23 23 23 23 24 23 25 25 22 24 25 24 25 26 26 26 27 27 28 29 29 29 29 28 28 28 27 28 28 27 26 27 27 26 26 28 28 27 26 26 26 26 27 27 27 25 25 24 23 24 23 23 24 23 23 24 23 23 24 23 22 23 23 22 22 22 22 23 23 23 23 23 23 23 23
19 20 20 21 22 22 22 23 24 25 25 25 24 23 23 23 23 24 23 24 25 24 25 25 25 26 27 27 27 27 28 28 29 29 29 29 29 28 28 28 28 27 27 27 27 26 24 27 29 28 26 26 26 26 27 27 27 27 25 24 23 23 23 23 23 24 24 23 24 24 24 24 24 23 23 23 22 22 22 22 23 23 23 23 23 23 23 23
19 20 20 21 22 22 23 23 24 24 25 25 24 23 24 24 24 24 24 24 24 25 26 26 27 27 29 29 28 28 29 28 29 30 29 29 29 27 28 29 27 27 27 28 27 26 26 28 28 27 26 27 27 27 27 27 26 27 26 25 25 25 24 23 23 24 24 23 24 24 23 23 24 24 23 23 23 23 22 22 23 23 23 23 23 23 23 23
19 19 20 21 22 23 23 23 23 24 24 24 25 24 24 25 25 25 25 24 24 26 27 26 27 28 29 29 28 29 29 29 29 29 28 29 29 28 28 28 27 28 28 27 26 26 28 28 26 27 27 27 28 28 27 27 25 25 27 27 26 26 25 24 24 24 23 22 24 24 21 22 24 24 23 23 23 23 23 23 23 23 24 24 23 23 23 23
19 19 20 21 21 23 23 24 23 23 24 25 25 25 25 25 25 25 25 24 24 27 29 28 28 29 30 29 28 29 29 29 29 28 28 29 29 29 29 27 27 28 28 27 27 27 28 28 27 28 27 27 27 28 27 27 25 24 27 28 26 26 25 24 24 23 22 21 23 23 22 21 22 24 24 24 24 24 23 23 24 24 24 24 23 23 23 23
19 19 20 20 21 22 23 24 23 23 25 25 25 25 25 26 26 25 25 22 23 27 29 28 28 30 30 29 29 29 27 28 29 28 28 30 29 29 29 28 28 28 28 27 26 26 28 29 28 28 29 28 27 28 28 27 25 24 26 27 25 25 24 23 24 23 22 22 22 23 23 21 21 23 24 24 24 24 24 24 24 24 24 24 24 23 23 23
19 19 20 20 21 20 20 21 21 22 25 26 25 26 26 26 26 26 24 21 23 27 29 29 29 30 30 28 29 30 28 29 30 29 28 29 30 29 29 29 29 29 29 27 25 26 28 30 30 29 29 28 29 30 28 27 27 25 25 25 25 25 24 24 24 23 22 22 21 22 22 21 21 22 23 23 23 24 24 24 24 23 23 24 24 24 24 24
19 20 20 20 21 21 20 20 20 22 24 25 25 26 26 26 26 26 23 21 25 29 29 29 30 30 29 29 29 29 29 29 30 29 29 29 29 29 29 29 29 29 28 27 27 28 28 29 29 29 29 29 30 30 27 27 27 25 25 25 25 25 24 25 24 23 22 22 21 22 22 21 21 22 22 23 23 24 25 25 25 24 23 24 24 24 24 24
20 20 20 20 20 20 20 20 22 24 24 25 25 26 27 26 25 24 21 22 26 28 28 29 29 29 29 29 29 29 29 29 30 30 29 29 29 29 29 28 28 29 28 27 28 29 28 28 28 29 29 29 30 28 26 27 26 25 25 25 25 25 25 25 24 23 22 21 21 21 22 22 21 22 22 23 24 25 25 25 25 24 24 24 24 24 24 24
21 21 21 21 20 19 19 21 24 24 24 25 25 26 26 26 24 22 21 24 26 27 28 29 29 29 29 29 29 29 29 29 29 29 30 29 29 29 28 27 28 28 27 27 27 28 29 29 28 29 29 29 30 29 26 26 25 26 27 25 24 24 24 23 23 22 21 21 22 21 21 22 21 22 23 24 25 25 25 26 25 25 24 24 24 24 24 24
21 22 22 21 21 20 21 23 25 24 24 25 25 26 26 24 22 21 23 26 25 26 29 28 28 29 29 29 29 29 29 29 29 29 29 29 28 29 29 28 28 26 23 24 26 27 29 29 28 28 28 29 30 29 26 26 26 26 26 24 22 21 21 22 21 21 21 21 21 21 22 22 21 23 25 25 26 25 25 26 26 26 25 24 24 24 24 24
22 23 23 23 22 21 22 23 23 23 24 24 24 26 26 23 22 22 24 25 25 26 28 28 28 28 28 28 29 29 28 29 29 29 29 28 28 29 28 27 28 27 24 23 24 24 26 28 28 28 29 29 29 29 26 26 27 26 25 23 22 21 21 21 20 21 21 21 21 21 22 21 21 24 25 25 25 25 24 24 25 26 26 25 25 25 25 24
23 23 23 23 23 23 23 23 23 23 24 24 25 26 24 22 22 23 24 26 26 27 28 28 27 27 27 28 29 29 28 28 29 29 28 28 27 28 28 27 27 28 27 24 23 23 23 24 27 28 28 28 29 29 28 28 28 26 26 25 23 22 21 21 21 21 21 21 21 21 22 21 22 24 25 24 25 24 23 23 25 26 26 26 25 25 25 25
23 23 23 24 24 24 24 24 23 23 23 24 26 25 22 21 23 23 25 26 27 27 28 27 27 27 27 28 28 29 28 28 28 28 28 28 27 28 29 28 27 28 28 24 23 24 22 22 27 28 27 27 28 28 28 29 27 25 26 26 24 24 23 22 21 21 21 21 21 21 21 22 23 25 25 24 24 24 23 23 24 25 25 25 25 25 24 25
23 24 23 24 23 24 24 24 23 23 23 25 25 23 23 23 24 25 26 27 27 27 27 26 27 26 25 27 28 28 28 28 28 28 27 27 28 28 29 29 28 28 28 26 24 24 22 23 28 29 27 28 27 27 28 27 26 26 25 24 24 25 26 22 20 21 21 21 21 21 21 23 24 25 25 24 25 24 23 22 23 24 24 25 25 25 24 25
22 22 22 23 23 23 24 24 23 22 24 25 25 23 24 25 25 26 27 27 26 27 26 25 26 26 24 25 27 29 28 28 28 27 26 26 27 28 29 30 28 28 29 27 26 25 23 23 27 28 28 28 26 26 28 27 27 27 24 24 25 25 25 24 21 21 21 21 22 21 21 22 22 23 25 25 25 24 23 22 22 23 24 24 24 24 24 25
19 19 20 22 23 23 24 23 23 23 24 25 24 23 24 25 25 25 27 27 26 27 26 24 25 27 25 24 26 28 28 26 26 26 25 25 26 27 30 30 28 28 28 27 27 26 24 23 25 27 27 28 27 27 28 27 28 27 25 26 25 23 23 23 22 21 21 21 21 21 21 21 21 22 24 24 24 23 22 22 22 22 23 24 24 24 24 24
17 19 23 23 22 24 24 23 23 24 25 24 24 24 24 24 25 26 26 27 26 26 26 25 26 26 26 26 27 29 28 26 27 26 25 25 26 27 29 29 29 28 27 28 28 27 25 23 24 27 27 26 27 27 25 25 27 27 26 27 26 24 23 22 22 22 21 21 21 21 21 21 21 23 24 24 23 22 22 21 22 22 22 23 23 24 24 24
16 21 24 22 22 23 23 23 24 25 25 23 23 24 24 24 26 26 27 27 27 27 27 27 26 26 27 28 27 28 28 27 28 27 25 26 26 27 29 29 30 28 27 28 28 26 26 24 22 26 27 25 25 25 24 24 26 26 25 25 24 24 23 22 22 22 21 21 21 21 21 22 23 24 24 24 23 22 21 21 21 21 21 22 22 22 23 24
15 22 23 21 22 22 22 24 24 23 24 23 22 23 24 25 26 26 27 27 27 28 27 27 27 27 27 28 27 28 29 28 28 27 27 27 26 27 29 30 30 29 28 28 28 26 26 25 22 23 24 23 24 25 24 24 25 25 25 24 23 23 22 22 22 21 22 21 21 21 21 22 24 24 23 23 22 21 21 21 21 21 21 21 21 21 22 23
17 22 22 21 22 21 22 24 22 21 23 23 23 24 24 25 26 26 27 26 26 27 27 27 27 27 27 28 27 28 29 28 28 27 27 28 28 28 29 29 29 29 29 28 28 26 26 26 23 22 22 23 24 24 23 23 25 25 25 24 24 23 22 22 21 21 21 21 21 21 21 22 23 22 22 23 21 21 21 21 21 21 21 21 21 21 21 22
18 20 21 22 22 21 22 23 22 21 23 24 23 24 24 25 25 26 26 26 26 27 27 27 28 28 28 28 28 29 29 28 27 28 28 28 29 29 28 28 29 30 29 28 27 26 26 25 23 22 23 24 24 25 25 25 25 25 25 24 24 23 23 22 22 22 21 21 21 21 20 22 23 21 21 21 21 21 20 20 21 21 20 20 20 20 20 21
14 15 18 21 22 22 22 23 23 23 23 23 23 24 24 25 25 26 26 26 27 27 27 28 28 28 28 28 28 29 28 26 27 28 28 28 29 28 27 29 30 30 29 29 28 28 26 24 23 21 22 22 23 24 24 25 25 24 24 24 24 24 23 23 22 22 21 21 21 21 21 22 22 21 20 20 20 20 20 20 20 20 20 20 20 20 20 20
14 15 17 19 21 23 22 22 22 22 22 22 23 24 24 24 25 26 26 26 27 27 27 28 28 28 28 28 28 29 28 27 27 28 28 28 29 28 27 28 29 30 30 28 28 28 26 24 23 22 21 21 21 21 22 23 24 23 23 24 24 23 23 23 22 21 21 21 21 21 22 22 22 21 20 20 20 20 20 20 20 20 20 20 20 20 19 20
17 19 19 20 21 21 21 20 20 21 22 22 23 23 23 24 25 25 25 26 26 26 27 27 28 28 28 28 29 29 28 28 27 28 29 29 29 28 27 28 29 29 29 27 27 28 26 24 24 24 22 22 23 23 23 23 23 22 23 24 24 23 23 23 21 21 21 21 21 22 22 22 23 22 20 20 20 20 21 21 21 20 20 20 20 20 20 20
16 18 18 19 20 21 21 20 19 20 21 21 22 23 23 23 24 24 25 26 26 26 26 27 27 27 27 28 29 29 28 28 28 29 29 28 28 28 27 28 28 28 28 27 26 27 26 24 24 25 25 25 25 25 24 24 24 24 23 24 24 23 23 22 21 21 22 21 21 22 22 21 23 23 21 20 21 21 21 21 21 21 20 20 20 20 20 20
16 17 17 17 18 20 20 20 19 19 20 21 21 22 23 23 23 23 24 25 25 26 26 26 27 26 25 26 27 28 28 28 28 28 28 28 28 28 28 28 28 27 27 27 26 27 28 25 23 24 25 26 25 24 23 24 24 24 24 24 24 23 23 23 22 22 22 21 22 22 22 22 24 23 21 20 21 21 21 21 20 20 20 20 20 20 20 20
16 17 16 16 17 18 18 19 18 19 20 21 21 22 22 23 22 22 23 23 24 25 25 25 25 25 24 24 25 27 28 26 26 27 28 28 28 28 28 28 27 27 28 28 26 26 27 25 23 23 25 25 24 22 23 24 24 23 24 24 24 23 23 23 23 23 22 22 23 23 21 22 23 22 21 20 20 20 21 21 20 20 20 20 20 20 20 19
15 15 15 15 17 17 17 18 18 20 21 21 21 22 21 22 22 21 21 22 24 25 24 24 24 24 24 24 25 27 27 26 26 28 29 28 27 28 28 28 28 27 28 28 27 25 25 24 24 24 23 24 24 22 22 23 23 23 24 24 23 23 23 22 23 23 22 22 23 22 21 23 23 21 20 20 20 20 20 20 20 19 19 20 20 20 20 20
12 12 13 15 17 17 17 18 18 19 20 21 21 21 20 21 21 20 21 22 23 24 24 24 24 24 24 25 25 26 26 24 25 27 29 29 29 29 29 29 28 28 28 28 27 27 26 24 23 24 22 22 23 22 22 23 23 23 23 24 24 23 23 23 22 22 22 23 22 21 22 23 22 19 19 20 19 20 20 20 20 19 19 20 20 20 20 19
10 12 12 14 17 17 17 18 18 19 20 20 20 19 20 21 20 20 22 23 23 24 24 23 23 24 25 27 26 25 24 23 23 24 26 27 29 30 29 28 28 29 29 28 27 27 27 25 23 23 22 21 22 22 23 23 22 22 23 24 24 24 23 23 23 22 22 23 23 22 23 22 20 19 19 19 19 19 19 19 19 19 19 19 19 19 19 19
Height
798 797 796 794 793 792 790 789 788 787 786 785 784 783 782 781 780 780 779 778 777 776 775 774 772 771 770 769 768 767 765 764 763 764 763 758 756 758 759 760 761 762 763 764 765 766 767 769 769 769 770 771 774 774 773 773 773 780 792 801 803 804 800 791 790 789 785 783 782 780 777 781 785 781 776 776 781 784 786 785 782 782 780 781 782 783 787 790
799 797 796 794 793 792 790 789 788 787 786 784 784 783 782 781 780 779 778 777 777 775 775 773 772 771 770 769 767 766 764 762 762 762 758 756 756 758 759 760 761 762 763 764 765 766 767 769 769 770 772 775 776 774 775 775 775 785 795 800 800 796 789 781 782 782 781 781 779 779 778 779 781 780 776 782 790 787 790 791 787 788 786 784 784 785 788 790
799 797 796 794 793 792 790 789 788 786 785 784 783 782 782 781 780 779 778 777 776 775 774 772 772 770 769 768 766 766 764 762 762 760 756 755 756 757 759 760 761 762 763 765 765 765 767 768 768 770 774 778 777 776 778 777 778 784 791 799 793 784 781 778 778 778 777 777 778 780 778 778 778 777 777 784 791 789 791 791 789 792 791 788 786 786 788 790
799 797 796 794 793 791 790 789 788 786 785 784 783 782 782 781 780 779 778 777 776 775 773 772 771 770 769 767 766 766 763 764 763 757 755 755 756 757 758 760 761 762 764 764 765 766 766 767 768 770 775 780 778 778 780 778 780 783 786 791 783 778 781 775 774 775 775 776 777 779 779 780 776 775 778 783 793 795 789 784 782 786 788 788 787 787 788 790
798 797 795 794 793 791 790 789 787 786 785 783 783 782 781 780 780 779 777 777 775 774 773 772 771 769 769 767 767 764 764 772 765 754 755 756 756 757 758 760 761 762 763 764 766 766 767 767 768 771 777 781 781 780 780 775 776 782 782 779 776 778 780 773 772 773 774 777 777 779 781 779 775 776 779 781 790 791 781 777 776 778 780 782 785 786 788 790
798 796 795 794 792 791 789 788 787 785 784 783 782 781 781 780 779 778 777 776 775 774 772 771 770 769 769 767 767 764 767 774 762 752 756 755 756 757 758 759 760 762 763 764 765 766 768 769 771 776 780 782 783 781 777 772 773 782 780 774 774 775 776 774 772 773 775 777 780 781 778 776 777 780 780 779 781 778 771 772 774 776 777 779 783 786 788 790
798 796 795 793 792 791 789 788 786 785 784 782 782 780 780 779 778 778 776 775 774 773 772 771 770 769 768 766 766 765 767 766 755 753 756 754 756 756 757 759 759 761 762 764 765 767 769 771 775 778 782 783 783 779 774 772 773 780 780 774 774 773 775 774 772 773 775 778 780 779 778 779 782 782 781 780 776 772 769 769 773 776 778 781 784 786 788 790
797 796 794 793 791 790 788 787 786 784 783 782 781 780 779 778 777 777 775 775 773 772 771 770 770 769 768 767 766 767 766 760 753 755 755 754 756 755 757 758 759 761 761 764 765 766 768 772 776 776 783 783 779 778 774 773 775 779 779 775 775 775 776 774 773 775 775 778 778 778 781 784 784 783 782 780 776 772 770 770 773 777 780 782 785 787 788 789
797 796 794 792 791 789 788 786 785 784 782 781 780 779 778 777 776 776 775 774 773 772 771 770 770 769 768 767 767 770 765 756 754 755 755 755 755 755 757 757 759 760 761 764 764 765 768 772 774 773 780 780 777 778 773 778 780 776 777 777 777 778 777 775 775 776 777 778 778 780 786 785 781 782 783 780 777 774 771 772 775 778 782 783 785 787 788 790
797 795 794 792 790 789 787 786 784 783 782 780 779 778 777 776 775 775 774 773 772 771 770 770 770 768 769 767 769 771 761 753 755 755 755 755 755 756 757 757 759 760 761 763 763 764 766 769 769 768 774 776 777 777 774 778 777 773 776 777 778 779 777 776 777 778 779 780 779 783 787 785 780 784 788 782 777 776 774 775 777 779 783 783 785 787 788 790
797 795 793 791 789 788 786 785 783 782 781 779 778 777 776 775 774 773 772 772 771 771 770 770 769 769 769 767 771 769 757 753 755 754 755 756 755 756 756 757 758 759 761 762 763 762 763 765 765 768 774 775 775 776 774 773 772 773 775 777 780 779 778 778 779 780 780 782 782 782 786 786 783 787 790 784 778 777 778 779 779 780 783 783 785 787 788 789
797 795 793 791 789 787 785 784 782 781 779 778 777 776 774 773 772 772 771 771 770 770 769 769 769 769 768 769 769 762 754 754 755 754 756 755 756 757 756 757 757 759 759 760 761 760 761 762 763 771 774 772 775 778 774 770 771 774 774 781 784 780 782 782 781 782 781 786 783 782 791 791 788 791 789 784 779 777 780 781 781 782 783 784 786 787 788 789
796 794 792 790 788 786 784 782 780 779 778 777 775 774 773 771 770 769 769 769 769 769 769 769 769 768 769 768 761 755 754 755 754 754 755 755 756 757 757 758 758 759 759 759 760 759 762 762 764 769 769 771 777 774 770 768 771 777 778 784 789 789 790 785 783 783 783 789 782 785 802 799 792 792 787 783 780 779 782 783 782 782 783 785 786 787 789 789
796 794 792 789 787 785 783 781 779 778 776 775 773 772 770 768 767 767 767 768 768 768 769 769 769 768 770 765 755 753 755 754 754 754 754 755 755 756 757 757 758 759 759 759 759 760 762 762 764 767 767 770 771 767 772 777 777 782 785 788 796 801 796 786 786 786 787 791 780 787 807 801 791 791 786 783 782 781 783 783 783 783 783 785 786 788 789 789
796 794 791 789 786 784 782 780 778 776 775 773 771 770 768 766 765 764 765 767 767 768 768 769 769 768 770 763 753 753 754 753 753 753 753 754 754 756 756 756 757 758 758 758 759 760 761 762 765 770 770 767 767 773 782 786 784 788 794 800 805 806 798 788 786 786 789 791 783 790 807 801 792 790 786 783 783 784 784 783 782 782 782 784 785 787 788 788
795 793 791 788 786 783 781 779 777 775 774 772 770 768 766 765 764 764 765 766 767 768 768 769 768 769 771 763 754 753 753 753 753 752 753 753 754 755 755 756 756 757 758 758 758 759 759 762 766 770 771 771 775 780 786 792 794 795 799 805 805 805 804 796 789 786 787 789 788 793 803 801 793 789 786 784 784 786 786 783 781 782 782 782 784 786 787 788
795 792 790 787 785 782 780 778 776 774 772 771 769 767 766 765 764 765 766 766 768 768 768 769 768 769 767 757 754 756 754 753 752 752 753 753 754 755 755 757 757 757 757 757 758 759 760 764 769 772 774 779 781 782 792 802 802 800 803 804 801 803 807 801 794 790 787 790 794 797 801 800 792 788 787 785 784 787 787 784 781 781 782 781 783 784 786 787
794 792 789 787 784 782 779 777 775 773 772 770 768 768 767 766 766 766 767 767 768 768 770 769 768 774 771 758 757 758 753 752 752 752 752 753 754 755 756 757 757 758 760 762 762 763 765 768 773 777 780 784 784 786 797 801 796 797 800 801 802 803 805 804 798 794 790 794 798 800 803 799 792 789 786 785 785 787 788 785 783 782 782 781 782 784 785 786
793 791 788 786 783 781 778 776 775 773 772 770 769 768 767 767 767 767 767 768 769 770 772 769 767 775 774 760 755 754 751 751 751 751 752 753 754 755 756 757 758 761 767 772 770 768 770 774 779 784 786 786 786 786 790 789 787 789 792 797 801 802 804 804 798 793 792 797 800 800 801 799 794 790 787 785 785 787 787 786 787 786 783 783 783 784 785 786
793 790 787 785 782 780 778 775 774 773 771 770 769 768 770 772 773 772 768 766 767 765 765 765 764 766 765 757 753 752 751 751 751 751 752 753 753 756 757 759 762 766 772 777 776 772 773 781 787 786 784 781 781 782 781 783 785 788 791 796 800 801 802 801 798 794 791 797 801 799 799 798 794 790 787 784 784 788 788 787 790 788 785 785 785 785 785 785
792 790 787 784 782 779 777 775 774 772 772 771 768 770 775 779 780 779 773 766 761 759 760 760 760 761 757 754 752 751 754 754 752 751 752 752 753 759 764 764 770 775 776 777 777 774 776 786 785 778 777 776 778 781 781 783 785 787 791 795 796 799 800 798 796 793 791 797 801 799 799 797 793 791 787 783 785 789 788 787 791 790 788 787 785 786 786 786
792 789 786 783 781 779 776 774 773 772 772 771 770 771 775 776 777 776 776 774 763 756 758 758 758 759 752 750 751 751 757 760 757 752 751 753 755 763 768 769 776 779 777 778 779 781 785 786 777 770 774 777 779 780 781 783 784 786 791 792 793 796 798 798 796 792 791 797 800 799 800 797 793 791 788 785 787 788 786 787 790 791 790 788 786 786 786 788
791 788 785 782 780 778 775 773 772 772 771 771 771 772 774 774 773 772 775 779 771 757 757 759 759 758 753 751 750 751 758 762 762 755 749 753 759 763 767 772 777 778 778 779 781 788 790 780 769 768 772 775 779 780 780 783 783 785 789 792 792 795 797 797 797 794 792 795 798 797 798 795 792 792 790 787 787 787 788 789 789 789 790 788 785 784 785 788
790 787 785 781 779 777 774 772 772 772 771 771 772 772 773 772 772 772 773 779 777 763 755 755 754 755 753 749 747 752 758 759 759 755 748 753 761 763 766 770 776 779 779 778 780 786 784 772 766 769 771 773 776 779 781 782 784 785 786 788 789 791 795 795 796 795 794 797 795 795 802 800 794 795 794 789 787 789 790 791 791 789 787 787 785 783 782 784
789 787 784 780 778 776 773 772 771 771 771 771 772 771 772 771 770 770 773 783 784 767 755 753 753 752 748 747 748 750 756 757 754 751 747 750 758 764 767 767 773 779 778 778 781 783 777 768 766 769 772 774 776 778 778 780 785 785 780 779 780 785 791 795 796 797 803 807 797 798 814 810 796 796 798 792 791 791 791 792 791 789 786 785 787 785 783 783
789 786 783 780 778 774 773 771 771 772 771 770 771 770 771 770 769 769 775 791 789 770 761 758 757 754 747 750 750 749 762 762 749 746 748 748 750 757 767 770 771 775 775 775 778 777 772 766 765 769 771 775 778 776 775 778 787 788 776 771 776 782 788 795 798 800 810 814 802 799 814 816 802 797 795 793 793 792 791 790 788 787 786 785 786 785 784 784
788 785 782 780 776 774 773 771 772 772 770 770 770 770 770 769 769 768 779 801 796 772 766 762 758 754 749 750 748 755 774 766 749 748 747 748 749 751 766 773 772 773 769 773 780 776 770 766 767 768 769 775 778 774 772 775 783 785 774 772 779 783 790 797 799 803 810 812 807 802 808 817 811 798 793 793 795 795 791 790 788 785 785 783 783 783 783 783
787 784 781 779 776 775 773 772 772 770 769 770 768 769 769 768 769 770 787 811 797 768 764 761 752 748 747 748 748 757 766 759 760 759 745 746 751 753 768 771 771 772 766 775 786 777 768 767 768 768 770 775 772 768 768 771 779 782 775 776 781 785 792 795 798 804 808 811 814 808 807 817 814 800 796 794 797 799 792 788 786 785 784 782 781 781 780 781
786 783 780 777 775 773 772 772 771 768 768 768 767 769 768 767 769 776 798 811 788 763 761 758 752 751 751 753 755 757 757 757 764 759 746 749 751 753 766 767 766 771 767 773 780 772 766 765 763 766 772 772 765 765 768 770 778 780 777 778 781 787 791 793 798 802 806 813 815 810 809 817 813 802 802 801 799 798 789 783 783 782 783 781 779 779 778 779
784 781 779 775 773 771 771 770 768 767 767 767 768 767 765 768 776 793 812 804 781 768 762 758 758 759 759 762 763 761 761 760 759 754 752 756 753 753 760 761 763 769 770 773 774 769 763 759 759 763 765 764 761 765 769 769 772 774 777 782 787 791 790 795 800 800 812 820 813 810 811 815 813 801 800 800 792 787 783 781 782 780 781 780 777 777 777 777
781 779 777 773 771 770 770 768 766 766 767 767 767 765 768 777 788 809 812 788 776 774 765 764 765 762 763 769 769 765 764 763 758 759 762 761 761 762 764 766 769 773 776 776 773 770 765 762 763 760 758 759 760 766 771 771 770 772 779 785 793 800 800 803 805 806 822 825 813 813 812 814 818 802 793 790 781 778 780 779 779 777 777 777 775 775 774 775
779 776 774 770 768 768 768 767 765 767 767 766 766 766 775 791 800 807 797 778 780 780 770 770 769 765 767 770 770 766 766 766 761 762 766 768 770 769 770 774 774 781 789 786 780 775 768 765 766 761 757 758 762 771 777 775 775 778 782 787 801 818 821 822 823 824 828 822 813 814 811 814 814 795 786 786 778 776 776 772 772 772 772 773 773 773 772 773
776 773 770 767 765 764 764 765 765 767 766 765 767 769 783 802 805 798 788 782 784 777 768 770 768 767 770 770 769 766 767 768 764 763 766 769 773 771 770 772 771 778 789 791 788 784 777 771 767 765 762 758 761 772 781 781 781 783 785 787 801 822 834 838 839 837 830 819 814 814 812 813 807 790 784 784 778 775 772 768 766 766 768 768 768 769 770 770
774 770 767 764 762 762 762 764 764 765 766 765 770 778 792 805 800 790 787 784 779 772 768 769 769 770 771 771 769 764 767 769 764 765 768 771 776 774 771 772 771 772 779 787 791 791 795 791 778 773 770 764 764 768 772 775 778 783 783 783 790 804 818 827 829 826 825 824 821 817 814 811 803 791 783 778 775 773 770 766 763 762 763 764 765 767 768 769
771 768 765 762 761 761 761 763 763 764 766 767 774 787 798 800 794 789 787 781 777 774 771 769 770 774 774 772 768 762 765 768 764 767 771 773 776 775 771 771 772 771 775 787 790 790 802 800 779 771 770 767 768 767 765 770 778 783 781 781 786 788 793 808 817 815 817 823 823 819 812 801 792 784 777 775 774 772 770 768 765 764 764 763 765 767 768 769
769 766 764 762 761 761 761 762 763 764 766 770 781 793 793 787 786 785 781 776 777 777 775 773 771 775 777 773 770 765 763 766 767 770 774 775 775 773 770 767 767 769 770 780 787 789 799 797 777 770 770 766 768 767 765 770 779 781 782 785 786 782 783 800 816 816 816 819 817 816 809 796 791 785 777 776 775 772 774 772 769 768 765 765 766 766 767 768
768 765 764 762 761 762 761 761 763 765 767 773 785 791 787 780 777 777 774 773 775 774 778 783 776 774 779 777 772 768 765 766 768 771 776 778 774 770 768 764 762 763 763 770 779 782 789 792 780 775 775 767 764 766 765 765 770 778 785 784 782 784 785 792 808 817 822 822 814 814 814 807 804 795 781 779 780 778 778 776 774 771 767 767 768 767 767 765
769 766 765 763 762 762 761 762 764 765 769 778 787 788 784 779 774 773 771 771 773 773 780 788 780 773 778 780 774 768 768 771 772 774 777 779 774 767 764 764 762 761 760 764 772 776 783 791 785 777 777 771 763 767 772 769 766 772 778 777 780 791 794 794 804 815 823 826 818 814 816 814 812 801 788 786 787 785 783 780 777 773 770 770 768 767 767 765
771 769 767 764 763 762 763 764 764 767 773 784 790 786 782 778 773 769 767 768 772 775 780 783 778 774 776 776 772 768 769 772 773 775 777 777 775 765 761 763 762 761 760 761 769 775 780 791 792 779 775 776 770 774 784 782 774 771 774 777 779 788 794 797 802 808 816 826 825 818 812 808 804 798 790 789 789 787 786 783 779 776 773 770 768 767 766 765
773 772 770 765 764 764 764 764 766 771 778 786 788 783 780 778 771 766 764 766 769 771 775 778 777 777 774 771 770 767 768 770 771 773 775 773 772 767 760 759 760 762 762 762 768 774 778 788 794 784 776 782 784 786 790 789 785 781 782 785 786 788 793 798 803 805 807 817 826 826 816 801 791 787 785 786 786 786 785 783 779 776 772 770 768 766 765 765
776 776 772 766 765 766 766 768 773 777 781 784 785 781 778 775 771 767 763 763 765 764 766 771 773 774 772 770 770 767 766 769 768 770 772 770 771 769 759 753 756 759 762 765 769 773 778 785 792 792 788 791 792 789 787 787 786 786 788 792 794 794 795 802 810 810 805 809 818 825 820 800 784 782 782 784 785 784 783 781 779 776 773 770 768 766 765 764
780 779 773 768 768 767 768 774 780 782 782 781 780 778 775 771 771 769 763 763 765 762 762 766 768 770 770 768 768 765 765 768 768 769 769 766 766 764 756 751 754 755 760 769 772 769 773 780 790 798 798 795 792 786 786 786 783 784 788 791 795 797 796 803 811 808 806 811 814 821 821 801 785 784 783 783 785 784 782 780 778 775 772 771 768 766 766 763
784 780 771 768 769 768 772 780 784 783 781 778 776 774 772 771 771 769 765 765 765 763 765 765 763 764 764 763 764 763 763 766 767 766 765 765 761 757 754 752 752 755 760 770 773 768 772 783 793 800 800 794 788 783 782 783 782 785 789 789 793 797 795 799 804 803 806 811 812 821 822 800 785 786 785 784 786 784 783 780 778 776 772 770 769 767 766 764
790 785 775 770 768 768 776 784 785 784 781 778 777 774 771 770 769 768 767 766 763 763 765 764 760 760 759 759 760 760 762 766 767 763 763 765 759 753 753 751 751 755 758 763 766 764 774 788 795 803 811 808 802 798 791 786 787 791 793 792 793 795 796 799 802 803 807 807 805 812 812 796 787 789 787 787 788 786 785 781 777 776 773 770 769 767 766 765
790 786 779 773 768 770 777 781 782 784 783 782 781 777 774 772 767 765 766 764 761 761 764 761 756 756 757 758 759 759 760 762 764 762 762 763 758 752 753 752 751 753 753 755 756 758 774 789 791 799 815 822 818 812 802 793 794 797 796 793 793 795 797 799 803 808 810 809 807 804 800 792 789 791 790 789 790 788 785 782 778 776 773 771 770 768 767 765
790 787 782 777 772 773 778 779 781 784 784 785 784 779 778 777 769 762 762 763 761 759 760 758 755 756 758 758 760 760 759 760 761 761 762 762 758 755 754 752 752 752 753 755 755 761 778 788 786 787 797 803 800 795 793 793 795 798 797 794 794 797 797 799 806 810 808 810 809 800 796 795 790 792 794 791 789 788 784 781 778 775 773 772 770 768 766 765
793 792 791 788 782 780 781 782 785 786 785 786 785 780 779 779 774 767 763 762 761 759 758 757 756 761 764 762 761 761 760 761 760 759 761 762 759 757 754 752 753 753 754 756 758 765 777 785 786 785 783 784 784 785 789 791 790 792 794 793 794 797 798 800 806 805 803 811 810 799 798 798 788 787 792 790 787 786 782 780 778 775 773 772 771 769 767 765
793 793 793 793 791 789 787 786 787 787 785 785 784 781 780 779 779 777 770 764 761 759 761 762 761 763 766 766 766 764 763 764 763 761 762 762 761 760 757 756 756 755 756 760 761 764 772 780 787 788 782 781 786 790 790 789 789 792 792 791 792 795 797 798 799 798 800 807 803 795 799 798 786 784 790 788 785 784 780 778 776 774 773 772 772 772 769 768
794 794 792 793 794 793 790 788 788 787 785 783 783 781 782 782 782 781 776 771 768 762 763 767 766 763 763 764 764 765 765 766 766 763 761 761 762 762 763 763 760 756 757 761 763 765 770 778 787 789 784 782 787 793 793 790 791 792 791 791 792 793 794 794 794 794 797 798 794 794 800 795 784 784 786 783 782 780 778 776 775 775 775 774 774 774 772 770
796 796 795 794 794 792 791 789 788 787 784 783 784 783 783 783 784 782 777 775 774 767 764 768 767 761 760 760 761 763 762 764 765 760 756 759 763 762 763 762 760 760 759 761 766 767 770 781 788 787 788 787 788 793 795 793 792 791 790 791 793 794 796 796 794 794 796 797 794 796 799 791 782 783 783 780 780 779 778 777 776 777 777 776 775 774 773 771
798 798 797 797 795 791 791 790 788 789 787 785 785 785 784 783 783 783 777 770 770 768 766 767 765 761 759 758 759 760 760 761 762 755 748 750 752 752 753 754 755 760 762 763 766 765 770 784 788 788 794 795 791 795 796 792 793 794 789 787 788 791 793 792 792 792 791 791 793 797 796 788 783 784 784 783 782 781 780 778 778 778 778 777 776 774 773 772
799 798 798 798 796 792 792 791 790 790 788 786 786 786 785 782 781 782 778 769 765 764 764 765 764 761 759 758 758 758 755 754 754 750 747 746 742 741 745 747 749 754 758 763 767 767 771 780 786 791 797 797 797 798 794 792 800 799 789 783 783 785 787 788 788 789 787 786 790 792 789 784 785 786 787 786 784 783 781 780 780 781 779 777 776 774 774 773
Wind_Speed
13 13 15 15 16 16 15 15 14 12 11 11 11 11 11 12 13 13 14 14 14 14 14 13 13 12 12 13 15 17 18 17 11 4 5 5 4 5 4 6 12 10 6 5 3 4 5 4 4 5 4 2 1 0 1 2 2 2 3 2 0 2 3 4 6 5 3 2 4 2 2 5 4 2 2 3 5 5 6 2 3 5 5 7 11 20 24 22
13 13 14 15 16 16 16 16 15 13 11 11 11 10 11 12 12 13 13 14 14 14 13 13 13 12 11 13 16 17 17 15 8 6 7 5 2 8 10 8 11 9 5 4 2 3 4 2 4 5 3 2 1 1 1 1 2 2 3 2 2 4 4 4 6 5 2 1 4 3 1 4 5 4 3 4 4 6 6 2 4 6 6 9 15 22 22 22
12 13 14 15 15 16 16 16 15 13 12 11 10 10 11 11 12 12 13 14 14 14 13 13 13 11 11 13 15 16 14 10 4 3 2 1 4 11 13 9 8 7 5 3 2 2 3 4 8 6 3 1 2 1 1 0 2 1 3 1 5 5 4 4 5 6 4 2 5 4 1 2 3 4 3 5 7 7 6 4 5 5 6 9 12 17 20 20
13 14 15 15 16 16 16 16 16 14 12 11 10 10 10 10 11 12 13 14 14 13 12 12 12 10 10 13 14 13 10 4 0 1 3 3 4 12 15 10 7 7 6 4 2 3 4 6 6 4 3 1 3 1 1 3 3 2 3 4 6 4 3 4 6 7 4 3 4 5 4 2 2 3 4 8 8 4 6 8 8 10 12 12 11 14 17 18
13 15 15 16 16 16 16 16 16 15 13 11 11 10 9 10 10 12 13 14 14 13 12 12 11 10 10 13 12 10 6 3 2 3 2 2 3 9 13 11 8 6 6 4 3 4 4 3 4 4 3 1 2 2 2 5 3 2 4 5 5 4 2 4 5 4 2 2 3 5 5 3 1 2 4 11 9 5 7 7 8 12 15 15 14 14 15 14
15 15 16 16 16 16 16 16 17 16 14 12 11 10 10 10 11 12 13 14 14 13 12 11 10 9 10 12 9 6 3 1 4 3 2 0 2 7 12 12 9 7 6 6 5 6 4 3 4 3 2 1 1 2 4 3 4 2 4 4 4 4 2 3 2 3 2 2 3 2 1 1 3 3 2 9 8 6 5 6 7 10 14 16 15 14 13 12
16 16 15 16 16 16 16 16 16 16 14 13 11 10 10 10 11 12 13 13 14 13 11 11 10 9 11 10 5 4 2 2 5 2 2 1 3 7 11 13 11 8 7 8 7 5 4 5 3 3 3 1 2 4 5 1 4 5 4 3 2 3 2 1 3 4 3 2 1 1 2 3 3 2 1 5 5 5 3 8 10 10 13 16 13 12 12 12
18 17 17 17 17 17 17 16 16 16 15 13 12 11 11 11 11 12 13 13 14 13 11 11 10 9 11 8 2 3 2 2 3 1 3 2 3 6 10 12 11 9 9 9 8 6 4 5 3 3 2 2 2 3 5 4 1 6 5 3 2 2 1 2 5 5 4 3 2 3 4 3 2 1 1 3 4 5 5 11 11 12 12 13 12 12 12 11
20 19 19 19 19 18 17 17 16 15 15 14 13 13 12 12 12 12 13 13 13 12 10 9 8 8 9 6 2 3 0 2 1 1 2 1 2 5 9 10 11 11 8 9 9 7 5 3 3 3 2 3 1 3 3 2 3 4 1 1 3 2 3 3 5 5 4 3 3 5 4 3 4 2 1 2 5 5 6 13 12 13 12 12 12 12 12 10
21 21 21 21 20 20 18 17 16 16 15 14 14 13 12 12 12 12 13 13 12 11 10 8 6 6 6 4 4 3 1 2 2 2 2 0 2 5 8 8 11 11 9 8 9 7 5 4 3 3 2 2 1 3 2 2 3 1 4 5 5 2 3 3 4 5 3 3 4 3 1 4 4 2 1 3 6 5 6 13 12 13 13 13 12 10 10 10
23 23 23 23 22 21 19 18 17 16 16 15 14 13 12 12 12 12 12 11 11 9 8 6 4 4 4 3 4 1 2 1 2 3 3 2 2 3 4 6 9 12 10 7 10 10 7 6 5 4 0 1 2 3 1 1 2 3 4 5 5 4 4 4 5 3 2 3 4 3 0 3 3 1 1 5 6 5 6 13 12 13 12 11 12 10 8 8
25 25 25 25 24 22 20 19 18 17 16 15 14 13 13 13 12 12 11 10 9 7 7 4 3 3 3 2 3 3 0 0 2 4 5 4 2 1 2 3 6 11 10 7 9 12 10 8 7 4 2 1 1 2 1 1 2 2 2 4 5 5 4 2 3 2 2 2 3 2 1 4 0 1 3 5 5 4 5 12 11 12 10 10 10 9 7 8
27 27 27 27 25 23 21 20 19 18 17 16 15 15 14 14 14 13 11 9 7 5 4 3 2 2 2 1 3 2 1 2 5 6 7 7 5 3 3 5 4 6 7 5 7 6 7 8 7 4 3 1 2 1 2 2 3 2 3 4 2 5 4 3 2 2 3 2 4 1 1 5 3 4 4 4 5 3 6 11 10 11 10 9 9 7 7 8
29 29 29 29 27 25 22 21 20 19 18 17 16 16 16 15 14 13 10 6 4 3 2 2 2 1 1 3 3 1 2 4 6 8 8 9 9 6 5 7 7 8 9 9 8 3 2 5 5 2 2 2 2 1 4 4 3 2 2 2 3 1 3 5 1 3 3 2 4 4 1 5 5 5 4 3 4 2 7 11 10 10 10 9 9 8 8 8
30 30 30 30 29 27 23 21 20 19 19 18 17 17 14 12 9 7 4 4 4 3 2 1 2 1 1 4 2 1 4 3 5 7 7 9 9 5 3 5 8 9 10 11 10 5 4 2 4 1 2 1 2 4 3 3 3 3 1 2 3 2 4 6 2 3 3 1 4 5 2 5 5 5 4 3 3 3 4 11 12 11 11 10 9 9 8 9
30 30 31 31 31 28 24 21 20 19 19 18 17 14 11 9 5 1 5 5 5 4 3 2 2 2 2 2 3 3 3 3 5 6 6 9 9 5 1 1 3 6 9 10 7 6 5 1 3 1 1 1 4 4 3 3 3 3 2 1 2 2 2 4 3 1 4 2 3 3 2 4 4 4 4 4 3 3 4 9 12 11 11 10 9 8 8 8
31 31 31 31 31 29 25 21 19 19 17 17 16 11 9 8 4 6 7 7 5 5 3 2 1 2 0 3 4 3 2 4 7 7 6 9 10 8 3 3 1 2 3 4 2 1 2 0 0 1 2 3 2 4 3 2 3 3 2 1 4 2 1 2 2 2 4 4 1 1 2 5 5 4 4 5 6 4 5 8 12 10 8 7 7 8 8 8
32 32 32 32 32 30 26 21 19 18 15 16 13 8 9 8 7 6 7 8 5 3 2 1 1 2 2 3 3 4 6 8 6 4 5 8 9 9 4 1 1 2 4 3 2 2 2 2 2 2 3 4 3 5 3 4 3 2 3 2 3 1 1 2 2 1 3 4 1 0 3 6 7 6 3 6 6 5 5 5 7 6 5 5 6 7 7 8
33 33 33 33 32 31 27 21 18 15 13 15 10 5 8 7 6 4 4 6 3 1 1 1 1 1 3 4 5 7 9 7 4 3 4 5 6 6 2 2 2 3 4 3 3 2 1 3 3 1 3 2 2 5 6 7 4 5 4 3 2 1 2 4 3 3 1 4 1 2 3 4 5 5 3 5 6 4 3 4 3 2 3 4 5 5 6 8
34 34 33 33 32 32 28 21 16 13 12 14 7 3 5 5 4 3 1 1 3 4 2 3 3 1 4 5 5 7 7 3 2 3 3 4 6 5 2 4 5 4 3 1 2 2 3 2 2 5 6 7 7 7 7 5 3 4 3 2 3 3 2 3 2 3 0 3 1 3 3 4 4 4 4 3 6 5 3 7 3 2 2 4 6 6 7 7
35 35 34 33 32 32 29 21 14 10 10 12 8 4 2 2 2 3 4 4 5 7 6 6 5 4 8 8 5 3 3 2 2 1 2 3 5 5 0 3 5 3 2 2 1 3 4 1 6 9 9 8 7 6 5 4 2 2 4 2 2 2 3 3 3 2 1 1 2 2 1 5 4 2 4 3 5 7 7 8 3 2 2 3 6 7 7 5
36 35 34 33 32 32 30 21 11 7 7 9 9 5 4 1 1 5 3 4 6 6 6 5 3 6 9 10 9 2 3 2 5 4 4 4 2 2 1 3 4 2 3 1 1 5 4 3 10 10 7 5 4 5 5 4 3 2 3 2 2 2 2 2 1 1 2 1 3 1 0 4 5 2 3 5 5 6 7 8 3 3 4 5 7 8 7 6
37 36 34 33 32 31 30 20 8 4 7 8 6 5 2 5 4 4 4 1 6 4 3 3 3 4 6 6 6 5 3 1 3 5 7 8 1 2 4 3 3 1 2 1 2 1 2 6 9 5 6 7 3 4 7 4 2 2 3 2 2 3 3 1 2 1 2 0 2 2 1 3 4 3 3 4 4 6 7 5 3 4 6 5 6 8 9 8
37 37 34 34 31 30 30 18 4 4 9 7 3 3 5 9 5 4 4 1 4 5 3 5 4 4 4 2 6 8 3 3 2 3 7 10 3 2 4 3 3 0 3 4 6 4 6 9 5 2 5 7 4 3 6 4 2 2 3 4 4 4 3 1 2 2 3 3 1 4 3 4 2 2 2 1 2 4 6 5 6 6 6 4 4 7 9 10
38 37 35 35 31 30 28 12 2 6 10 4 3 4 9 10 6 2 3 3 2 6 4 3 1 3 3 1 5 6 2 1 4 3 7 10 6 3 1 2 3 2 4 4 5 3 8 8 2 2 3 5 4 2 4 6 2 4 4 9 7 5 5 3 4 4 4 4 2 3 2 4 3 1 3 2 2 3 5 6 7 6 6 4 4 6 6 7
38 37 36 35 32 31 21 4 3 10 8 1 1 5 8 9 7 2 3 4 2 5 3 1 0 1 2 2 2 2 4 3 6 3 6 9 7 4 1 1 0 2 4 4 3 2 5 4 3 2 4 6 4 2 5 7 4 2 4 8 7 8 8 6 6 4 2 2 3 3 3 3 4 2 5 5 5 7 5 5 7 5 5 5 5 6 6 6
38 37 37 35 33 30 14 3 8 10 3 1 1 5 7 9 5 3 3 5 2 2 1 1 1 1 1 1 2 3 2 5 3 2 3 8 5 3 1 2 1 2 2 2 2 2 3 4 7 5 5 6 3 2 5 8 7 2 4 3 8 8 8 7 6 4 1 2 4 3 3 1 3 4 5 7 7 8 7 7 6 5 6 7 6 6 6 7
38 38 37 35 33 27 13 7 10 5 3 2 3 6 7 7 2 4 5 3 1 1 1 2 1 0 2 0 3 3 2 3 1 2 1 5 3 4 1 4 3 4 2 4 2 5 2 2 3 4 6 3 3 4 7 9 5 3 2 7 8 7 8 6 6 3 1 2 4 4 1 0 4 4 2 4 7 8 11 11 9 7 8 7 8 8 8 8
37 38 37 36 32 23 12 8 7 4 3 2 3 7 7 4 1 4 4 2 1 1 1 1 1 2 3 2 1 1 1 1 2 3 2 3 1 3 2 4 5 4 3 4 4 6 3 4 4 3 2 3 5 2 6 7 3 1 6 10 8 7 7 5 4 3 2 3 3 5 1 2 4 4 1 3 5 9 12 12 9 8 8 8 8 9 9 8
37 37 37 35 29 18 10 10 8 5 4 1 5 7 5 2 3 5 2 1 0 1 1 1 1 1 3 2 4 3 1 2 1 1 2 2 3 3 2 2 4 2 2 3 2 6 5 3 3 3 3 6 4 3 2 4 7 7 7 9 8 5 4 4 3 3 3 2 4 5 3 3 2 3 2 3 3 6 8 8 8 8 8 9 9 9 9 8
37 36 36 33 25 13 7 6 3 5 4 3 6 4 3 3 4 5 1 2 1 2 2 2 2 2 3 2 3 2 1 3 2 1 0 1 3 4 2 0 3 3 3 5 3 5 7 5 1 3 2 2 4 5 5 4 5 6 5 6 5 4 4 4 4 3 2 3 5 3 2 3 1 3 3 3 5 4 5 8 10 11 10 10 10 9 9 8
37 35 33 29 21 12 7 4 2 3 3 4 4 3 4 2 2 2 2 3 1 2 2 1 1 3 1 1 2 2 1 2 2 2 3 1 0 1 1 3 1 3 3 3 3 5 5 1 3 6 2 2 3 4 5 5 5 5 5 5 5 3 3 2 3 2 1 4 4 1 3 2 3 4 3 5 6 5 5 8 9 11 12 11 9 9 8 8
36 34 31 26 19 12 9 6 6 6 4 2 2 4 6 4 1 3 2 2 0 2 1 1 2 3 1 1 3 3 2 2 3 1 2 2 0 3 3 3 5 3 1 2 1 4 4 4 8 9 4 2 4 4 1 1 1 3 4 4 4 3 3 1 3 2 2 4 3 0 2 1 3 2 3 5 5 6 6 7 8 9 10 11 11 10 10 9
35 32 29 23 14 7 6 7 8 6 3 1 4 5 5 2 3 3 1 2 1 2 2 1 4 3 2 2 4 3 1 3 3 3 1 2 2 3 4 2 3 5 3 1 0 2 2 4 6 5 3 4 4 4 4 4 3 3 4 5 4 4 3 2 3 2 3 3 3 3 0 2 1 1 2 4 4 4 6 5 3 4 7 9 9 8 8 9
33 30 24 15 8 3 4 9 9 6 4 3 6 5 4 3 3 1 2 3 1 3 5 3 2 3 1 3 4 1 2 4 1 4 1 1 2 2 2 2 2 3 4 3 2 1 4 2 5 4 4 2 3 1 3 5 3 2 2 4 2 3 4 2 3 5 4 1 1 2 2 3 2 3 4 4 3 4 9 9 6 3 1 5 7 6 6 7
31 27 18 10 6 3 2 8 10 7 3 4 6 2 3 3 2 2 2 1 1 2 5 5 2 3 2 3 3 3 1 2 1 3 0 1 3 3 3 3 4 5 5 4 2 1 3 1 5 5 4 3 3 1 2 4 2 1 1 1 2 3 6 3 1 0 3 2 2 1 2 4 2 2 5 6 7 8 10 10 8 6 2 4 6 7 7 8
31 24 11 8 8 2 2 7 12 8 4 6 4 3 4 3 3 3 2 1 1 1 3 3 1 1 1 2 3 4 1 1 0 2 1 2 2 3 3 2 2 6 7 4 2 3 4 1 5 3 2 2 0 2 3 2 4 3 1 3 3 2 4 3 1 3 3 1 4 2 2 4 2 1 4 8 9 9 9 8 7 6 4 1 2 2 5 7
26 17 7 8 9 2 3 8 12 6 5 5 1 3 3 2 2 3 1 1 1 2 4 1 3 1 1 1 4 4 1 1 1 2 2 1 1 3 3 1 1 3 5 5 2 0 4 1 6 3 2 5 4 4 3 5 3 4 2 3 2 3 1 1 1 1 1 1 3 3 3 3 2 3 4 6 6 8 8 7 6 6 5 3 2 1 2 4
15 7 3 8 8 3 8 9 7 4 5 3 1 2 2 2 3 4 2 1 1 2 2 3 3 1 1 3 3 3 1 3 3 2 2 2 1 2 2 2 1 1 1 6 4 0 3 3 3 4 2 3 6 4 1 5 5 4 2 2 2 3 3 0 1 2 2 1 2 3 3 2 4 4 2 3 4 4 6 6 5 5 5 4 3 2 2 3
6 1 3 10 6 8 9 4 3 5 3 2 3 2 2 2 4 5 4 2 1 2 2 4 3 1 3 3 2 2 0 3 4 3 2 2 1 2 2 3 2 2 4 5 4 1 3 3 1 5 4 3 2 1 1 2 2 2 3 3 3 2 1 1 1 1 2 3 2 0 2 4 5 3 4 4 4 3 3 4 4 5 5 4 4 3 3 2
3 1 3 8 6 8 4 3 3 3 2 1 2 3 2 1 2 5 5 4 3 3 3 4 4 3 3 2 2 2 1 1 3 3 2 2 3 2 3 4 5 3 3 5 3 1 1 2 2 2 4 2 2 4 2 3 3 3 2 1 1 1 1 3 1 2 1 3 3 3 2 6 5 1 3 3 2 1 2 4 5 5 5 5 5 3 2 2
3 1 3 4 4 1 5 3 1 1 2 2 2 3 2 1 1 4 4 2 3 3 1 2 4 4 3 3 3 3 2 1 1 2 2 3 5 3 1 3 5 4 5 3 1 1 3 3 4 1 2 2 7 7 3 2 3 4 2 2 3 1 3 5 2 3 1 2 1 3 1 5 5 1 2 1 0 1 2 4 5 5 5 5 4 4 3 2
2 3 4 3 3 3 5 2 2 3 1 3 3 3 2 1 2 3 3 1 2 2 1 2 3 3 3 4 3 3 3 3 2 2 2 2 4 4 3 6 7 4 5 3 2 1 2 3 3 1 4 4 5 6 4 2 3 3 2 2 3 1 1 4 4 3 2 2 2 2 1 5 4 3 3 3 2 2 2 4 5 6 5 4 5 5 4 4
1 4 4 5 2 2 3 1 1 2 3 3 3 3 3 2 2 3 3 3 2 1 1 3 3 2 3 2 2 3 3 2 2 2 2 1 2 3 4 7 7 4 3 3 4 2 1 1 3 3 3 5 5 6 6 4 3 2 2 2 1 2 3 2 1 2 0 3 4 4 3 5 3 3 4 4 4 3 4 4 6 6 5 4 5 4 4 4
3 2 3 6 4 3 3 2 3 1 3 2 3 5 4 2 3 4 4 4 3 2 1 3 3 3 2 1 1 1 1 2 1 1 2 1 2 2 2 5 5 3 4 4 5 4 3 3 3 4 3 1 1 2 3 2 0 0 1 3 1 3 3 1 1 3 1 3 3 4 4 5 4 3 4 4 3 3 3 4 6 6 6 6 6 5 4 4
2 1 3 5 5 4 1 1 3 2 0 2 3 4 2 3 5 4 3 3 3 2 3 4 3 1 2 1 1 2 1 1 0 1 2 2 2 2 2 4 2 2 4 7 7 4 4 2 3 6 6 6 6 6 5 3 2 1 1 1 1 1 3 3 3 1 3 2 1 4 4 3 4 3 2 2 2 2 3 4 5 6 6 6 6 6 6 4
2 1 1 2 3 3 2 3 4 2 1 0 1 2 1 3 5 4 2 1 3 3 2 2 1 3 2 3 1 1 1 1 2 2 3 2 2 2 2 2 3 2 6 7 4 4 5 1 3 6 6 6 7 5 3 3 3 3 3 2 2 1 3 4 2 3 3 3 3 6 3 2 5 4 3 2 2 3 3 4 5 6 6 6 5 7 8 6
1 0 0 1 1 1 1 2 3 3 3 2 2 1 2 2 4 4 4 4 5 4 2 2 4 4 2 2 1 1 1 2 2 1 2 1 1 2 4 4 4 2 4 4 2 4 6 2 3 4 4 5 4 3 2 3 2 3 5 3 3 3 4 4 4 5 5 4 6 6 3 5 6 4 4 3 3 4 4 4 5 6 7 7 6 8 9 8
1 1 1 1 0 2 3 3 3 3 3 2 1 1 1 2 4 3 3 4 5 4 2 2 6 7 5 1 3 1 1 2 1 3 2 1 2 2 2 1 2 2 3 3 2 2 4 2 2 3 1 5 2 2 4 4 3 1 3 4 4 4 5 5 5 5 5 5 6 4 3 7 6 5 5 3 2 3 4 4 6 6 7 7 7 8 9 8
1 0 1 2 2 2 3 3 1 1 3 2 1 1 1 1 3 4 4 2 3 4 2 2 7 9 7 1 5 3 3 3 4 6 6 5 2 2 3 3 2 2 3 2 1 2 2 1 1 4 2 5 4 2 2 4 4 2 5 4 3 2 3 3 3 3 3 4 5 1 2 7 5 3 3 2 2 3 4 6 6 5 6 7 7 8 7 8
2 1 0 2 2 2 1 2 1 2 2 2 1 1 3 2 2 4 5 4 4 3 2 4 8 7 4 3 6 1 5 4 7 10 8 7 6 5 3 4 6 4 2 2 1 2 3 2 1 4 2 4 4 3 3 4 4 1 6 7 5 3 3 3 3 3 4 3 2 0 2 5 4 1 1 2 3 4 6 6 5 5 6 7 7 7 7 7
4 2 1 2 1 2 0 1 2 1 2 2 1 1 3 4 3 3 3 3 3 3 2 4 6 4 3 5 5 4 9 8 11 11 6 2 3 5 4 4 7 7 5 4 2 1 4 4 2 3 3 4 5 1 4 5 6 3 6 6 5 3 3 3 2 4 5 5 4 3 4 4 2 2 2 3 5 6 6 4 3 4 6 7 7 7 8 8
Wind_Direction
352 356 357 359 2 3 3 0 358 354 351 349 347 349 350 353 352 352 350 349 351 349 350 346 339 337 335 332 331 332 330 327 326 298 229 263 267 195 176 167 176 181 178 159 123 108 96 86 112 113 103 97 49 305 192 159 115 69 87 91 259 205 206 196 189 194 180 191 175 193 178 116 108 129 132 85 63 114 137 33 55 52 47 105 125 138 147 152
353 356 354 358 1 2 1 358 357 354 350 348 348 350 354 356 351 350 347 347 349 348 348 342 338 338 331 330 331 334 332 328 319 271 250 267 241 169 156 150 170 186 187 160 128 121 93 70 142 116 71 39 323 235 166 186 143 115 115 120 232 205 212 204 182 190 180 189 145 136 168 120 129 150 143 119 119 143 131 44 79 77 73 104 126 139 147 152
351 355 354 355 357 359 358 355 356 353 351 349 350 355 359 356 350 349 348 348 349 347 345 340 341 338 330 330 332 337 332 328 328 269 316 359 192 172 160 156 166 176 175 150 114 123 102 124 144 118 61 15 275 216 120 205 177 171 117 152 246 212 224 230 183 194 204 179 129 127 176 122 158 165 134 137 149 166 160 153 135 125 132 131 138 144 149 155
351 355 353 354 354 355 355 354 354 353 354 353 353 359 360 354 351 351 350 350 348 346 342 338 341 337 331 333 335 337 330 341 94 199 37 43 165 171 170 171 168 167 170 154 108 120 120 120 129 102 78 311 305 359 181 217 192 196 153 193 237 185 221 240 190 197 204 176 143 134 134 125 185 153 125 135 141 203 205 188 173 158 154 149 152 153 153 158
355 355 352 353 354 355 355 354 354 355 357 357 359 1 0 356 353 354 352 348 346 343 337 336 338 336 335 336 336 332 345 69 214 253 2 34 157 179 180 180 178 172 172 162 133 133 130 103 88 64 55 333 338 35 231 213 163 187 216 222 223 157 222 257 180 177 171 148 126 120 133 151 155 71 130 148 155 215 211 198 178 157 158 157 158 157 157 161
357 352 351 353 354 355 355 355 355 357 359 359 1 0 1 356 351 352 350 345 343 339 332 332 334 336 338 337 335 337 18 98 258 266 295 58 162 189 188 191 189 181 180 157 134 136 132 81 69 75 63 357 236 219 249 212 164 216 263 250 231 188 218 282 134 106 87 115 110 129 187 95 97 60 153 169 181 221 193 157 153 156 156 152 153 155 160 167
357 354 355 355 355 355 355 355 354 356 358 358 358 357 356 350 345 345 345 344 341 335 328 328 332 336 341 339 336 2 50 263 269 251 280 256 186 194 193 201 194 187 188 158 135 138 131 94 86 132 108 351 228 227 269 274 183 215 269 281 269 202 200 297 95 79 75 101 175 181 10 28 103 120 159 189 216 257 188 134 136 147 146 146 153 159 166 174
3 1 360 358 356 355 355 354 353 353 353 353 353 351 349 343 339 337 340 340 336 334 326 327 333 335 344 349 354 17 36 271 273 237 293 273 212 197 190 198 194 194 186 167 161 158 135 114 153 161 107 272 206 240 292 349 226 212 242 282 14 48 42 44 79 60 58 63 355 75 65 358 293 263 212 224 283 291 159 130 132 142 145 152 160 166 171 178
7 3 1 359 356 355 354 354 353 350 348 349 349 347 344 339 334 330 331 332 333 331 325 328 327 335 351 355 47 48 316 266 289 272 306 299 225 190 187 192 191 191 174 172 176 165 163 156 192 170 164 251 266 301 290 358 274 225 215 46 56 37 20 46 72 46 36 35 14 61 59 323 309 318 262 264 326 316 147 133 138 146 152 162 165 172 174 178
6 4 1 358 357 354 353 353 351 347 346 347 346 345 341 334 327 321 321 324 327 324 322 323 316 338 355 357 67 72 265 285 300 269 277 277 132 163 188 197 193 186 162 168 179 169 177 174 157 133 157 246 232 277 261 178 236 135 100 84 69 64 44 53 73 38 28 38 27 67 42 308 332 1 278 315 350 336 150 140 146 153 161 169 168 175 176 181
6 4 1 358 356 353 352 352 349 346 345 345 345 342 335 327 318 312 311 314 317 316 316 311 312 337 357 50 91 146 265 302 295 283 266 227 142 142 180 192 190 183 161 160 190 195 202 186 133 110 85 239 204 272 314 189 160 111 114 80 35 42 52 52 77 33 24 55 28 75 120 300 346 61 276 311 348 345 161 152 155 160 166 171 170 174 177 186
6 5 2 358 355 352 352 350 347 346 344 344 342 338 332 320 310 303 299 302 305 306 305 300 317 333 7 55 160 200 358 55 278 284 267 247 206 152 184 185 180 183 171 161 195 206 215 196 132 124 255 220 264 309 94 169 116 89 81 73 360 16 31 15 80 31 71 54 344 63 333 296 281 249 298 316 346 359 163 161 163 166 169 171 173 173 177 188
5 4 2 359 356 353 351 349 347 346 343 343 341 336 328 314 304 294 285 287 288 289 290 285 311 337 43 327 220 176 46 267 264 265 257 251 239 238 230 215 196 196 197 201 212 217 229 206 154 166 227 157 282 289 97 36 64 39 30 84 16 11 347 309 57 50 78 28 324 62 284 282 267 283 306 322 350 34 161 173 171 171 172 172 174 175 180 187
4 3 2 360 358 355 351 349 347 345 343 343 341 335 325 315 303 287 273 264 252 245 251 278 323 46 94 270 237 124 319 271 256 253 248 242 238 246 245 222 217 221 227 244 253 299 316 210 173 178 216 187 250 13 39 9 34 43 20 48 38 48 281 303 8 80 77 342 342 77 211 266 273 290 304 313 344 26 169 177 178 177 176 174 176 178 182 189
3 1 1 360 358 356 353 349 346 346 345 344 342 337 331 327 314 288 247 206 190 181 184 38 360 60 30 293 269 314 301 287 263 258 251 243 238 241 231 212 225 231 234 251 259 278 313 201 162 144 245 281 28 54 28 359 18 44 70 336 355 182 264 316 332 120 120 297 21 79 206 274 278 275 280 281 326 327 197 181 182 184 179 175 177 181 185 193
2 1 360 358 358 357 353 349 347 347 347 346 345 346 349 350 348 122 142 148 153 159 149 84 38 75 82 320 336 329 275 278 296 288 259 245 241 239 256 298 250 232 231 247 255 263 281 188 141 117 173 9 57 84 46 25 357 7 91 235 269 209 271 328 338 53 116 103 26 71 211 275 280 250 249 256 254 275 246 195 186 186 184 176 174 181 183 189
2 0 359 358 357 356 354 350 348 349 350 350 350 2 18 20 63 114 124 117 133 148 128 120 71 44 283 291 330 330 272 296 305 296 269 250 242 240 277 4 15 169 211 240 246 258 293 74 55 8 55 43 78 98 62 355 301 328 41 242 251 201 195 297 316 354 68 77 40 37 240 257 281 273 231 236 233 235 254 212 188 184 184 175 171 177 177 181
1 359 358 357 355 355 354 350 349 352 354 354 357 28 39 50 86 100 118 107 111 128 91 234 110 49 280 288 312 292 296 306 302 278 260 250 240 236 242 22 46 39 35 21 12 20 353 358 38 29 6 16 57 96 137 228 214 193 205 226 271 321 175 257 275 303 52 66 84 95 268 271 296 302 245 226 219 218 247 211 185 183 167 164 169 170 172 174
0 358 357 355 354 355 354 350 350 353 357 359 3 58 51 55 80 82 129 101 78 123 27 264 148 71 247 259 280 293 303 306 289 240 223 224 216 210 195 71 48 38 45 26 347 360 50 22 30 359 309 301 177 153 181 211 169 153 182 173 201 271 245 241 262 287 95 89 78 192 239 278 294 299 281 230 209 220 239 157 163 225 139 149 159 155 165 168
359 357 355 354 353 353 353 350 349 353 359 4 8 82 45 25 31 3 293 154 205 215 243 216 176 252 270 265 286 314 317 299 239 210 193 199 173 143 88 31 32 37 58 146 291 332 84 67 279 230 233 229 207 191 190 194 128 105 115 144 195 189 226 248 235 282 274 106 279 235 230 284 290 301 323 248 186 184 176 137 142 242 149 159 157 147 159 163
358 356 354 353 352 352 352 348 349 356 0 11 27 77 85 57 33 321 311 301 240 217 231 229 193 235 262 264 283 344 13 322 285 254 165 182 145 126 351 15 50 9 299 203 227 357 60 94 249 229 223 224 203 191 190 188 168 135 148 173 243 182 210 248 189 251 327 116 272 280 283 300 313 337 351 22 140 156 152 126 93 286 221 195 162 153 157 145
357 355 353 351 350 351 349 347 350 355 3 20 41 88 136 86 310 245 253 319 280 227 218 239 226 254 265 263 260 248 82 360 314 299 174 145 86 149 252 51 99 243 292 60 23 359 19 254 254 246 212 189 175 164 159 179 193 163 142 162 272 237 205 262 236 350 30 110 269 288 223 285 308 351 26 42 90 127 136 134 135 259 246 220 172 158 151 136
355 353 352 349 348 349 347 347 352 359 8 17 50 103 93 358 347 207 177 311 294 273 211 209 201 238 276 273 224 164 107 181 295 291 180 147 101 180 134 90 141 243 343 121 171 40 341 250 249 240 160 154 171 153 140 155 203 165 138 142 256 232 176 233 261 10 38 47 227 160 132 291 312 23 53 38 67 102 123 158 215 246 238 232 193 167 154 153
353 352 351 347 346 348 346 344 359 17 1 7 73 82 4 352 7 146 153 345 300 295 243 208 197 202 252 285 169 147 114 189 196 283 176 146 117 144 147 150 138 356 265 200 172 178 251 256 239 150 142 150 151 141 141 156 269 274 181 188 227 207 170 186 182 114 23 350 139 106 39 318 311 78 91 18 21 107 137 193 240 240 225 239 221 183 165 166
351 350 349 346 344 345 344 343 48 10 349 4 107 14 359 350 345 134 124 31 316 294 274 222 237 208 220 121 158 165 91 234 220 214 171 153 138 130 184 170 130 239 242 179 146 189 259 265 248 140 148 126 127 184 184 167 217 307 234 215 211 166 146 130 124 95 30 342 318 80 47 302 310 124 171 177 232 187 160 192 219 219 204 200 209 200 180 175
349 349 347 345 342 343 346 1 7 346 336 331 132 346 351 342 335 137 113 39 334 292 309 246 316 219 232 118 155 141 63 308 256 184 162 168 153 117 118 255 32 246 214 158 144 207 264 295 37 110 133 106 105 253 224 163 135 305 254 214 179 140 142 138 121 96 58 265 293 66 123 274 313 274 203 174 203 220 198 199 213 209 197 194 202 203 189 185
347 347 346 343 341 343 346 302 318 327 314 216 307 333 340 338 339 144 96 31 349 287 296 287 351 92 243 175 137 107 95 283 286 78 155 176 164 67 93 251 307 256 208 92 12 291 256 336 25 57 78 89 97 269 216 155 128 254 281 138 137 133 136 132 109 93 163 240 319 20 106 260 301 270 224 172 185 225 234 229 220 209 206 200 201 203 199 195
345 345 343 340 338 339 333 299 305 298 214 239 313 328 332 335 335 126 80 56 293 298 197 274 303 128 318 344 120 120 229 280 70 327 302 161 165 60 57 243 200 231 242 95 299 275 241 325 28 59 45 60 208 223 183 141 103 292 357 89 111 113 115 115 97 90 81 47 327 309 75 41 273 281 302 163 182 222 234 232 224 210 208 203 198 202 204 203
342 343 341 337 335 335 329 300 288 251 214 243 325 327 326 328 33 83 69 108 266 325 234 308 315 286 344 28 31 35 311 343 126 272 340 120 181 70 120 223 168 212 269 119 213 259 248 209 176 124 66 230 236 220 165 145 118 155 96 87 85 84 92 87 85 97 49 39 283 265 162 103 275 278 36 127 193 224 228 228 226 212 207 205 203 203 203 203
340 340 338 335 331 330 322 296 277 232 206 298 324 322 336 14 71 65 53 186 327 291 248 348 308 296 52 60 321 333 221 263 261 314 23 82 332 27 129 183 111 146 294 25 251 258 287 264 178 160 190 199 182 81 87 146 139 130 96 81 76 60 57 53 56 84 54 343 274 258 180 125 307 274 182 154 220 238 226 224 224 212 206 208 208 205 201 201
337 338 336 331 324 316 301 295 272 187 203 315 326 335 27 33 68 87 166 227 285 300 329 335 313 13 71 135 288 307 174 274 301 62 41 338 355 19 51 15 39 40 1 2 324 290 334 4 266 263 243 155 107 67 26 27 93 101 90 89 79 22 15 28 2 33 70 264 277 276 153 117 298 262 237 248 283 285 232 220 219 210 205 206 208 207 201 198
336 336 333 328 317 291 255 237 176 180 249 306 336 32 77 44 34 141 246 306 315 292 326 294 300 345 356 143 271 253 174 290 299 132 158 156 125 175 168 192 172 20 341 329 337 331 345 12 318 321 327 101 91 70 26 7 26 63 93 88 71 24 12 14 330 347 194 249 279 206 136 118 252 249 278 281 285 293 253 229 221 210 206 204 202 207 204 198
335 335 332 326 314 287 254 238 236 240 261 281 26 51 80 84 242 213 257 332 240 267 296 196 304 309 205 115 271 236 172 241 255 158 152 115 358 271 265 205 158 117 261 236 5 353 339 318 345 360 359 34 87 103 72 335 52 114 133 112 103 102 67 329 272 296 265 268 299 247 160 274 279 271 322 316 307 309 289 254 226 209 207 203 199 202 203 198
335 335 331 327 322 295 234 213 224 228 224 144 73 63 85 124 231 214 251 283 256 302 320 301 321 330 153 200 253 216 171 250 194 124 96 59 29 304 307 291 152 125 120 122 114 64 56 326 342 4 330 358 55 139 159 148 142 189 189 133 126 146 140 198 219 204 231 258 331 353 202 206 217 239 300 302 297 330 347 319 248 211 208 202 203 205 203 201
334 335 334 333 344 346 202 198 203 199 182 99 65 77 132 202 242 181 217 257 304 323 315 315 12 39 359 281 279 226 212 255 155 102 84 109 163 227 260 261 198 132 118 130 224 95 83 276 286 293 279 15 37 192 140 107 108 229 183 99 85 179 147 139 186 177 176 171 337 321 234 213 212 260 296 320 330 16 22 12 13 7 231 185 197 205 198 205
336 338 341 342 352 17 200 201 189 176 153 86 68 102 187 215 207 158 187 213 27 316 330 344 57 77 348 306 316 337 256 232 127 82 344 206 190 212 226 221 184 161 148 141 199 166 86 258 281 322 336 43 65 359 82 104 158 249 82 105 241 175 123 109 195 184 88 129 265 284 276 304 336 277 304 350 4 17 21 15 13 3 360 163 187 197 191 199
337 339 338 343 355 22 200 191 171 156 100 85 99 195 219 222 184 171 180 123 319 359 54 11 319 131 298 285 299 318 342 229 141 107 218 254 215 208 232 258 180 184 186 146 171 193 129 204 289 347 7 314 319 82 30 52 124 97 78 214 214 116 94 107 135 11 43 203 277 329 279 299 355 248 312 358 5 2 7 6 0 355 2 109 200 208 204 200
331 330 321 344 355 4 152 153 153 133 73 82 96 238 222 218 201 204 199 110 347 39 91 170 257 248 172 208 276 289 118 195 263 124 166 267 241 195 177 215 237 215 197 135 96 340 108 100 293 282 221 295 336 60 11 341 42 92 155 199 131 114 81 22 108 130 67 233 287 320 302 269 195 229 309 348 351 345 346 350 353 350 348 321 287 296 246 203
328 330 335 355 1 110 132 138 139 76 65 102 214 246 220 240 258 250 240 93 116 114 126 213 232 328 240 197 242 272 150 184 202 158 154 155 201 215 176 186 235 329 99 122 128 316 88 111 283 280 246 321 356 48 46 316 339 23 42 14 36 129 155 39 122 160 159 184 261 315 332 282 221 220 243 278 302 329 333 338 341 324 314 297 264 233 222 203
347 22 323 351 23 137 137 119 65 57 83 174 202 217 245 249 272 272 246 212 181 174 189 209 196 243 261 235 239 269 240 175 172 158 178 158 148 275 262 194 157 56 54 86 107 92 65 97 224 294 331 30 18 29 135 237 295 5 25 14 355 4 92 108 51 100 131 147 176 281 313 273 251 211 184 230 270 298 309 313 310 300 299 296 280 239 202 195
10 40 314 0 74 138 114 37 42 81 133 213 213 228 279 243 271 293 261 213 209 226 202 190 193 207 235 266 274 253 238 157 157 151 191 187 150 202 239 190 159 140 90 66 63 108 104 106 130 324 355 27 259 266 252 222 192 152 121 108 172 288 84 106 328 305 108 123 155 160 245 269 265 215 172 212 247 284 303 289 281 292 296 292 294 277 220 187
22 6 293 26 100 125 31 63 246 52 141 212 238 222 279 303 235 277 273 213 203 229 213 193 210 207 209 226 231 209 178 192 181 159 195 201 180 193 220 134 131 124 112 103 295 188 140 103 90 55 329 268 261 270 270 229 152 125 106 108 132 114 99 121 196 257 123 79 120 123 187 267 274 340 101 129 302 319 310 282 272 284 292 292 304 309 287 242
41 290 291 347 240 267 42 82 298 355 192 252 279 233 262 303 237 260 277 243 214 211 181 221 211 204 225 219 198 195 191 186 180 185 223 226 203 222 208 145 133 105 96 121 238 209 95 80 73 359 312 308 298 306 333 15 64 74 17 49 99 65 94 143 175 187 152 164 140 96 253 262 291 2 60 58 22 351 324 306 287 284 296 305 309 311 303 283
315 269 292 354 283 188 87 119 261 327 280 300 333 304 296 271 228 260 274 266 254 187 164 244 221 197 232 204 161 197 196 180 206 195 176 193 207 228 203 168 143 122 143 170 174 159 114 104 94 65 359 346 346 342 339 344 36 81 307 327 48 65 61 91 142 87 154 215 160 139 230 252 283 6 45 44 28 16 352 326 301 291 298 308 307 307 301 296
330 255 265 333 5 105 137 177 145 172 285 337 330 303 317 303 253 242 247 262 260 199 194 264 241 204 245 224 137 257 178 143 228 184 120 226 265 332 227 187 148 156 203 160 127 117 117 136 119 109 126 171 283 282 269 262 18 63 297 317 4 73 70 57 115 81 260 242 159 154 222 263 288 354 32 33 30 15 342 319 308 300 301 304 304 304 298 291
11 3 297 327 1 56 109 134 90 106 291 27 324 299 333 317 294 266 235 245 266 235 212 250 254 228 281 256 138 301 283 106 52 116 110 201 234 324 266 197 150 169 153 112 96 87 92 125 145 138 159 179 192 219 219 161 130 149 203 284 308 58 82 97 96 129 196 200 239 221 211 256 283 294 347 349 353 326 299 304 306 299 300 305 306 304 301 289
68 7 342 341 342 13 34 20 43 56 321 188 264 290 307 306 313 317 299 280 311 313 247 242 46 55 335 298 304 289 268 4 10 135 148 208 234 307 321 89 65 83 120 105 82 85 97 160 182 150 183 203 188 209 222 142 155 185 175 220 269 134 97 104 150 215 165 123 278 258 198 211 259 249 228 248 272 276 275 284 290 292 298 304 306 303 303 305
57 333 102 135 261 294 27 354 3 357 313 256 213 292 317 334 344 338 322 320 327 342 12 352 3 19 335 276 246 281 331 10 346 181 171 203 160 21 14 31 23 34 98 79 29 91 111 169 190 162 225 244 196 198 207 147 144 172 174 205 227 176 160 180 214 207 158 166 247 247 205 228 251 240 218 225 255 269 269 269 276 285 290 294 305 310 310 317
4 18 311 27 173 229 245 301 324 332 310 269 261 341 19 11 350 318 297 318 321 329 44 2 320 320 313 224 156 204 217 151 222 244 205 162 135 104 74 44 353 25 80 79 27 78 117 167 185 138 305 297 277 208 192 155 123 191 216 220 220 204 198 210 223 202 180 213 242 236 244 259 252 219 209 211 243 269 277 275 273 280 290 303 315 316 316 319
28 29 320 6 353 271 265 299 341 19 337 314 267 320 338 5 344 316 288 246 276 310 4 357 310 312 310 272 134 173 234 191 225 231 177 146 175 177 163 186 185 64 70 106 27 26 85 154 158 93 43 308 320 49 122 141 145 231 276 265 244 258 260 245 236 196 190 242 254 228 281 280 268 212 199 230 271 276 278 273 273 288 307 319 320 318 322 324
340 248 103 63 332 301 285 309 24 91 331 319 155 316 320 298 328 323 291 225 209 260 333 327 307 306 321 50 95 181 287 289 261 242 194 167 184 186 189 187 165 145 131 154 132 50 86 103 56 73 78 286 317 45 94 103 95 347 297 280 247 232 234 224 216 207 195 197 214 256 281 272 269 186 158 267 270 261 266 275 296 322 324 324 325 329 333 328
1 317 40 89 291 317 41 326 5 100 238 259 139 319 288 272 305 339 312 294 273 255 285 313 303 310 356 33 42 321 294 279 259 247 226 212 182 159 168 160 143 144 157 150 114 89 124 129 135 115 135 261 291 16 117 74 42 339 280 259 221 200 207 219 243 236 205 162 156 210 238 239 224 169 186 240 253 254 268 290 318 324 325 330 331 335 334 324